| time (UTC) | temp F | wind direction | speed knots | gust knots | rain 1hr in | rain 24hr in | rain mn in | humidity % | barometer mb |
| 20260903051422 | 80 | 289 | 0.0 | 0.0 | 0.00 | 0.00 | 0.00 | 82 | 1048.3 |
| 20260903050918 | 80 | 332 | 0.0 | 0.0 | 0.00 | 0.00 | 0.00 | 82 | 1048.4 |
| 20260903050416 | 80 | 236 | 0.0 | 0.0 | 0.00 | 0.00 | 0.00 | 82 | 1048.0 |
| 20260903045911 | 80 | 269 | 0.0 | 0.0 | 0.00 | 0.00 | 0.00 | 81 | 1048.3 |
| 20260903045407 | 80 | 237 | 0.0 | 0.0 | 0.00 | 0.00 | 0.00 | 82 | 1048.3 |
| 20260903044904 | 80 | 222 | 0.0 | 0.0 | 0.00 | 0.00 | 0.00 | 82 | 1048.2 |
| 20260903044403 | 80 | 222 | 0.0 | 0.0 | 0.00 | 0.00 | 0.00 | 82 | 1048.2 |
| 20260903043900 | 80 | 316 | 0.0 | 0.0 | 0.00 | 0.00 | 0.00 | 82 | 1048.1 |
| 20260903043355 | 80 | 218 | 0.0 | 0.0 | 0.00 | 0.00 | 0.00 | 82 | 1048.1 |
| 20260903042854 | 80 | 300 | 0.0 | 0.0 | 0.00 | 0.00 | 0.00 | 82 | 1048.2 |
| 20260903042349 | 80 | 252 | 0.0 | 0.0 | 0.00 | 0.00 | 0.00 | 83 | 1048.0 |
| 20260903041845 | 80 | 247 | 0.0 | 0.0 | 0.00 | 0.00 | 0.00 | 82 | 1048.1 |
| 20260903041341 | 80 | 316 | 0.0 | 0.0 | 0.00 | 0.00 | 0.00 | 83 | 1047.8 |
| 20260903040837 | 80 | 283 | 0.0 | 0.0 | 0.00 | 0.00 | 0.00 | 83 | 1048.1 |
| 20260903040335 | 80 | 242 | 0.0 | 0.0 | 0.00 | 0.00 | 0.00 | 83 | 1047.9 |
| 20260903035832 | 80 | 233 | 0.0 | 0.0 | 0.00 | 0.00 | 0.00 | 82 | 1048.3 |
| 20260903035327 | 80 | 263 | 0.0 | 0.0 | 0.00 | 0.00 | 0.00 | 82 | 1048.1 |
| 20260903034822 | 80 | 195 | 0.0 | 0.0 | 0.00 | 0.00 | 0.00 | 82 | 1048.2 |
| 20260903034317 | 80 | 286 | 0.0 | 0.0 | 0.00 | 0.00 | 0.00 | 82 | 1048.2 |
| 20260903033812 | 80 | 234 | 0.0 | 0.0 | 0.00 | 0.00 | 0.00 | 81 | 1048.1 |
| 20260903033307 | 80 | 254 | 0.0 | 0.0 | 0.00 | 0.00 | 0.00 | 81 | 1048.1 |
| 20260903032801 | 80 | 254 | 0.0 | 0.0 | 0.00 | 0.00 | 0.00 | 81 | 1048.1 |
| 20260903032258 | 81 | 283 | 0.0 | 0.0 | 0.00 | 0.00 | 0.00 | 81 | 1048.3 |
| 20260903031753 | 81 | 231 | 0.0 | 0.0 | 0.00 | 0.00 | 0.00 | 80 | 1048.5 |
| 20260903031252 | 81 | 272 | 0.0 | 0.0 | 0.00 | 0.00 | 0.00 | 80 | 1048.5 |
| 20260903030748 | 81 | 266 | 0.0 | 0.0 | 0.00 | 0.00 | 0.00 | 80 | 1048.3 |
| 20260903030244 | 81 | 268 | 0.0 | 0.0 | 0.00 | 0.00 | 0.00 | 79 | 1048.6 |
| 20260903025739 | 81 | 322 | 0.0 | 0.0 | 0.00 | 0.00 | 0.00 | 79 | 1048.6 |
| 20260903025234 | 81 | 327 | 0.0 | 0.0 | 0.00 | 0.00 | 0.00 | 79 | 1048.6 |
| 20260903024729 | 81 | 213 | 0.0 | 0.0 | 0.00 | 0.00 | 0.00 | 79 | 1048.6 |
| 20260903024228 | 81 | 287 | 0.0 | 0.0 | 0.00 | 0.00 | 0.00 | 79 | 1048.7 |
| 20260903023724 | 82 | 307 | 0.0 | 0.0 | 0.00 | 0.00 | 0.00 | 79 | 1048.5 |
| 20260903023220 | 82 | 277 | 0.0 | 0.0 | 0.00 | 0.00 | 0.00 | 78 | 1048.6 |
| 20260903022719 | 82 | 236 | 0.0 | 0.0 | 0.00 | 0.00 | 0.00 | 78 | 1048.8 |
| 20260903022218 | 82 | 253 | 0.0 | 0.0 | 0.00 | 0.00 | 0.00 | 78 | 1048.7 |
| 20260903021718 | 82 | 304 | 0.0 | 0.0 | 0.00 | 0.00 | 0.00 | 78 | 1048.7 |
| 20260903021213 | 82 | 302 | 0.0 | 0.0 | 0.00 | 0.00 | 0.00 | 77 | 1048.8 |
| 20260903020708 | 82 | 304 | 0.0 | 0.0 | 0.00 | 0.00 | 0.00 | 77 | 1048.7 |
| 20260903020203 | 82 | 227 | 0.0 | 0.0 | 0.00 | 0.00 | 0.00 | 77 | 1048.8 |
| 20260903015658 | 83 | 271 | 0.0 | 0.0 | 0.00 | 0.00 | 0.00 | 76 | 1048.8 |
| 20260903015154 | 83 | 285 | 0.0 | 0.0 | 0.00 | 0.00 | 0.00 | 76 | 1048.8 |
| 20260903014648 | 83 | 310 | 0.0 | 0.0 | 0.00 | 0.00 | 0.00 | 76 | 1048.5 |
| 20260903014148 | 83 | 295 | 0.0 | 0.0 | 0.00 | 0.00 | 0.00 | 75 | 1048.6 |
| 20260903013643 | 83 | 303 | 0.0 | 0.0 | 0.00 | 0.00 | 0.00 | 75 | 1048.5 |
| 20260903013142 | 84 | 232 | 0.0 | 0.0 | 0.00 | 0.00 | 0.00 | 75 | 1048.6 |
| 20260903012641 | 84 | 305 | 0.0 | 0.0 | 0.00 | 0.00 | 0.00 | 74 | 1048.6 |
| 20260903012140 | 84 | 306 | 0.0 | 0.0 | 0.00 | 0.00 | 0.00 | 74 | 1048.8 |
| 20260903011640 | 84 | 314 | 0.0 | 0.0 | 0.00 | 0.00 | 0.00 | 74 | 1048.6 |
| 20260903011135 | 84 | 272 | 0.0 | 0.0 | 0.00 | 0.00 | 0.00 | 73 | 1048.3 |
| 20260903010630 | 84 | 284 | 0.0 | 0.0 | 0.00 | 0.00 | 0.00 | 73 | 1048.5 |
| 20260903010129 | 85 | 224 | 0.0 | 0.0 | 0.00 | 0.00 | 0.00 | 72 | 1048.5 |
| 20260903005624 | 85 | 292 | 0.0 | 0.0 | 0.00 | 0.00 | 0.00 | 72 | 1048.2 |
| 20260903005119 | 85 | 271 | 0.0 | 0.0 | 0.00 | 0.00 | 0.00 | 71 | 1048.4 |
| 20260903004619 | 85 | 277 | 0.0 | 0.0 | 0.00 | 0.00 | 0.00 | 71 | 1048.1 |
| 20260903004114 | 85 | 267 | 0.0 | 0.0 | 0.00 | 0.00 | 0.00 | 70 | 1048.2 |
| 20260903003610 | 86 | 243 | 0.0 | 0.0 | 0.00 | 0.00 | 0.00 | 70 | 1048.4 |
| 20260903003105 | 86 | 229 | 0.0 | 0.0 | 0.00 | 0.00 | 0.00 | 69 | 1048.1 |
| 20260903002600 | 86 | 270 | 0.0 | 0.0 | 0.00 | 0.00 | 0.00 | 69 | 1048.2 |
| 20260903002054 | 86 | 300 | 0.0 | 0.0 | 0.00 | 0.00 | 0.00 | 68 | 1048.1 |
| 20260903001549 | 87 | 279 | 0.0 | 0.0 | 0.00 | 0.00 | 0.00 | 67 | 1048.1 |
| 20260903001049 | 87 | 233 | 0.0 | 0.0 | 0.00 | 0.00 | 0.00 | 67 | 1048.2 |
| 20260903000545 | 87 | 278 | 0.0 | 0.0 | 0.00 | 0.00 | 0.00 | 67 | 1048.1 |
| 20260903000044 | 87 | 226 | 0.0 | 0.0 | 0.00 | 0.00 | 0.00 | 66 | 1047.9 |
| 20260902235538 | 88 | 277 | 0.0 | 0.0 | 0.00 | 0.00 | 0.00 | 66 | 1048.2 |
| 20260902235033 | 88 | 245 | 0.0 | 0.0 | 0.00 | 0.00 | 0.00 | 65 | 1048.3 |
| 20260902234532 | 89 | 239 | 0.0 | 0.0 | 0.00 | 0.00 | 0.00 | 64 | 1048.0 |
| 20260902234031 | 89 | 248 | 0.0 | 0.0 | 0.00 | 0.00 | 0.00 | 63 | 1048.0 |
| 20260902233526 | 89 | 211 | 0.0 | 0.0 | 0.00 | 0.00 | 0.00 | 63 | 1048.0 |
| 20260902233021 | 90 | 223 | 0.0 | 0.9 | 0.00 | 0.00 | 0.00 | 62 | 1048.0 |
| 20260902232520 | 90 | 219 | 0.0 | 0.0 | 0.00 | 0.00 | 0.00 | 61 | 1048.0 |
| 20260902232014 | 91 | 223 | 0.0 | 0.0 | 0.00 | 0.00 | 0.00 | 60 | 1048.0 |
| 20260902231509 | 91 | 274 | 0.0 | 0.0 | 0.00 | 0.00 | 0.00 | 61 | 1048.1 |
| 20260902231003 | 91 | 221 | 0.0 | 0.0 | 0.00 | 0.00 | 0.00 | 59 | 1048.1 |
| 20260902230458 | 92 | 261 | 0.0 | 0.0 | 0.00 | 0.00 | 0.00 | 58 | 1048.1 |
| 20260902225957 | 91 | 216 | 0.0 | 0.9 | 0.00 | 0.00 | 0.00 | 58 | 1047.9 |
| 20260902225452 | 92 | 209 | 0.0 | 0.9 | 0.00 | 0.00 | 0.00 | 58 | 1048.2 |
| 20260902224952 | 92 | 188 | 0.0 | 0.0 | 0.00 | 0.00 | 0.00 | 56 | 1048.3 |
| 20260902224451 | 92 | 186 | 0.9 | 5.2 | 0.00 | 0.00 | 0.00 | 56 | 1048.1 |
| 20260902223948 | 93 | 289 | 0.0 | 0.9 | 0.00 | 0.00 | 0.00 | 55 | 1048.2 |
| 20260902223443 | 93 | 247 | 0.0 | 0.9 | 0.00 | 0.00 | 0.00 | 55 | 1048.1 |
| 20260902222941 | 93 | 244 | 0.0 | 0.9 | 0.00 | 0.00 | 0.00 | 55 | 1048.2 |
| 20260902222435 | 93 | 239 | 0.0 | 0.9 | 0.00 | 0.00 | 0.00 | 55 | 1048.1 |
| 20260902221935 | 93 | 173 | 0.0 | 0.9 | 0.00 | 0.00 | 0.00 | 54 | 1048.2 |
| 20260902221433 | 93 | 206 | 0.0 | 0.9 | 0.00 | 0.00 | 0.00 | 54 | 1048.2 |
| 20260902220929 | 93 | 232 | 0.0 | 0.9 | 0.00 | 0.00 | 0.00 | 53 | 1048.0 |
| 20260902220423 | 93 | 207 | 0.0 | 0.9 | 0.00 | 0.00 | 0.00 | 53 | 1048.1 |
| 20260902215918 | 94 | 160 | 0.0 | 2.6 | 0.00 | 0.00 | 0.00 | 52 | 1048.2 |
| 20260902215414 | 94 | 217 | 0.0 | 0.0 | 0.00 | 0.00 | 0.00 | 51 | 1048.4 |
| 20260902214910 | 94 | 218 | 0.0 | 1.7 | 0.00 | 0.00 | 0.00 | 51 | 1048.1 |
| 20260902214409 | 94 | 227 | 0.9 | 2.6 | 0.00 | 0.00 | 0.00 | 51 | 1048.1 |
| 20260902213903 | 95 | 233 | 0.0 | 0.9 | 0.00 | 0.00 | 0.00 | 52 | 1048.2 |
| 20260902213400 | 95 | 183 | 0.0 | 0.9 | 0.00 | 0.00 | 0.00 | 52 | 1048.2 |
| 20260902212858 | 94 | 255 | 0.0 | 1.7 | 0.00 | 0.00 | 0.00 | 53 | 1048.2 |
| 20260902212355 | 94 | 177 | 0.0 | 0.0 | 0.00 | 0.00 | 0.00 | 53 | 1048.2 |
| 20260902211851 | 94 | 217 | 0.9 | 1.7 | 0.00 | 0.00 | 0.00 | 54 | 1048.3 |
| 20260902211346 | 95 | 213 | 0.0 | 0.9 | 0.00 | 0.00 | 0.00 | 54 | 1048.4 |
| 20260902210841 | 95 | 245 | 0.0 | 0.9 | 0.00 | 0.00 | 0.00 | 54 | 1048.3 |
| 20260902210341 | 93 | 274 | 0.9 | 2.6 | 0.00 | 0.00 | 0.00 | 56 | 1048.2 |
| 20260902205839 | 93 | 205 | 0.0 | 1.7 | 0.00 | 0.00 | 0.00 | 56 | 1048.3 |
| 20260902205333 | 94 | 234 | 0.0 | 0.9 | 0.00 | 0.00 | 0.00 | 54 | 1048.5 |
| 20260902204829 | 95 | 207 | 0.9 | 0.9 | 0.00 | 0.00 | 0.00 | 52 | 1048.5 |
| 20260902204324 | 95 | 246 | 0.0 | 0.9 | 0.00 | 0.00 | 0.00 | 50 | 1048.6 |
| 20260902203820 | 96 | 195 | 0.0 | 0.9 | 0.00 | 0.00 | 0.00 | 49 | 1048.5 |
| 20260902203315 | 96 | 243 | 0.0 | 7.8 | 0.00 | 0.00 | 0.00 | 48 | 1048.5 |
| 20260902202814 | 96 | 214 | 0.9 | 0.9 | 0.00 | 0.00 | 0.00 | 46 | 1048.5 |
| 20260902202311 | 95 | 271 | 0.9 | 2.6 | 0.00 | 0.00 | 0.00 | 49 | 1048.7 |
| 20260902201807 | 96 | 192 | 0.9 | 4.3 | 0.00 | 0.00 | 0.00 | 47 | 1048.7 |
| 20260902201306 | 96 | 216 | 0.0 | 2.6 | 0.00 | 0.00 | 0.00 | 50 | 1048.8 |
| 20260902200801 | 96 | 341 | 0.0 | 0.9 | 0.00 | 0.00 | 0.00 | 50 | 1048.9 |
| 20260902200257 | 96 | 211 | 0.9 | 1.7 | 0.00 | 0.00 | 0.00 | 52 | 1048.9 |
| 20260902195752 | 95 | 228 | 0.9 | 1.7 | 0.00 | 0.00 | 0.00 | 51 | 1048.9 |
| 20260902195251 | 96 | 220 | 0.9 | 6.1 | 0.00 | 0.00 | 0.00 | 51 | 1048.8 |
| 20260902194746 | 95 | 229 | 0.0 | 1.7 | 0.00 | 0.00 | 0.00 | 52 | 1048.8 |
| 20260902194241 | 96 | 255 | 0.0 | 1.7 | 0.00 | 0.00 | 0.00 | 51 | 1049.0 |
| 20260902193737 | 96 | 327 | 0.0 | 0.9 | 0.00 | 0.00 | 0.00 | 50 | 1049.1 |
| 20260902193232 | 97 | 245 | 0.0 | 0.9 | 0.00 | 0.00 | 0.00 | 50 | 1049.0 |
| 20260902192730 | 96 | 225 | 0.0 | 1.7 | 0.00 | 0.00 | 0.00 | 49 | 1049.0 |
| 20260902192229 | 96 | 299 | 0.0 | 0.9 | 0.00 | 0.00 | 0.00 | 48 | 1049.2 |
| 20260902191725 | 98 | 311 | 0.0 | 0.0 | 0.00 | 0.00 | 0.00 | 48 | 1049.2 |
| 20260902191219 | 96 | 234 | 0.0 | 0.0 | 0.00 | 0.00 | 0.00 | 51 | 1049.4 |
| 20260902190715 | 97 | 309 | 0.0 | 0.9 | 0.00 | 0.00 | 0.00 | 51 | 1049.2 |
| 20260902190215 | 98 | 252 | 0.0 | 0.9 | 0.00 | 0.00 | 0.00 | 49 | 1049.3 |
| 20260902185710 | 96 | 244 | 0.0 | 0.9 | 0.00 | 0.00 | 0.00 | 49 | 1049.5 |
| 20260902185208 | 95 | 206 | 0.0 | 0.9 | 0.00 | 0.00 | 0.00 | 51 | 1049.3 |
| 20260902184701 | 95 | 215 | 0.0 | 4.3 | 0.00 | 0.00 | 0.00 | 50 | 1049.5 |
| 20260902184157 | 96 | 207 | 0.0 | 1.7 | 0.00 | 0.00 | 0.00 | 49 | 1049.5 |
| 20260902183653 | 97 | 231 | 0.9 | 0.9 | 0.00 | 0.00 | 0.00 | 52 | 1049.6 |
| 20260902183149 | 95 | 270 | 0.0 | 6.1 | 0.00 | 0.00 | 0.00 | 55 | 1049.6 |
| 20260902182645 | 94 | 305 | 0.0 | 0.0 | 0.00 | 0.00 | 0.00 | 55 | 1049.9 |
| 20260902182141 | 94 | 317 | 0.0 | 0.9 | 0.00 | 0.00 | 0.00 | 55 | 1049.8 |
| 20260902181636 | 95 | 350 | 0.9 | 4.3 | 0.00 | 0.00 | 0.00 | 53 | 1049.7 |
| 20260902181136 | 95 | 272 | 0.0 | 0.9 | 0.00 | 0.00 | 0.00 | 52 | 1049.8 |
| 20260902180636 | 96 | 306 | 0.0 | 0.9 | 0.00 | 0.00 | 0.00 | 51 | 1049.7 |
| 20260902180132 | 94 | 336 | 0.0 | 0.0 | 0.00 | 0.00 | 0.00 | 54 | 1049.7 |
| 20260902175631 | 94 | 298 | 0.0 | 0.0 | 0.00 | 0.00 | 0.00 | 54 | 1049.9 |
| 20260902175127 | 95 | 336 | 0.0 | 0.0 | 0.00 | 0.00 | 0.00 | 53 | 1050.0 |
| 20260902174624 | 95 | 238 | 0.0 | 0.9 | 0.00 | 0.00 | 0.00 | 53 | 1050.2 |
| 20260902174119 | 95 | 222 | 0.0 | 0.0 | 0.00 | 0.00 | 0.00 | 52 | 1050.3 |
| 20260902173614 | 95 | 326 | 0.0 | 0.9 | 0.00 | 0.00 | 0.00 | 54 | 1050.1 |
| 20260902173109 | 95 | 254 | 0.0 | 0.0 | 0.00 | 0.00 | 0.00 | 55 | 1050.5 |
| 20260902172602 | 95 | 254 | 0.0 | 0.9 | 0.00 | 0.00 | 0.00 | 54 | 1050.5 |
| 20260902172057 | 94 | 312 | 0.0 | 0.9 | 0.00 | 0.00 | 0.00 | 55 | 1050.6 |
| 20260902171553 | 94 | 295 | 0.0 | 0.9 | 0.00 | 0.00 | 0.00 | 53 | 1050.5 |
| 20260902171049 | 95 | 313 | 0.0 | 0.0 | 0.00 | 0.00 | 0.00 | 54 | 1050.6 |
| 20260902170544 | 94 | 238 | 0.0 | 0.9 | 0.00 | 0.00 | 0.00 | 56 | 1050.5 |
| 20260902170040 | 93 | 240 | 0.0 | 4.3 | 0.00 | 0.00 | 0.00 | 56 | 1050.5 |
| 20260902165534 | 93 | 217 | 0.0 | 0.0 | 0.00 | 0.00 | 0.00 | 57 | 1050.7 |
| 20260902165033 | 93 | 215 | 0.0 | 0.9 | 0.00 | 0.00 | 0.00 | 56 | 1050.7 |
| 20260902164529 | 93 | 315 | 0.0 | 2.6 | 0.00 | 0.00 | 0.00 | 58 | 1050.7 |
| 20260902164028 | 93 | 204 | 0.0 | 0.0 | 0.00 | 0.00 | 0.00 | 58 | 1050.5 |
| 20260902163524 | 93 | 227 | 0.0 | 0.0 | 0.00 | 0.00 | 0.00 | 58 | 1050.6 |
| 20260902163022 | 92 | 239 | 0.0 | 0.9 | 0.00 | 0.00 | 0.00 | 58 | 1050.6 |
| 20260902162522 | 91 | 340 | 0.0 | 0.9 | 0.00 | 0.00 | 0.00 | 60 | 1050.6 |
| 20260902162017 | 91 | 244 | 0.0 | 0.0 | 0.00 | 0.00 | 0.00 | 59 | 1050.6 |
| 20260902161512 | 90 | 246 | 0.0 | 0.9 | 0.00 | 0.00 | 0.00 | 60 | 1050.5 |
| 20260902161008 | 90 | 221 | 0.0 | 2.6 | 0.00 | 0.00 | 0.00 | 61 | 1050.5 |
| 20260902160503 | 91 | 291 | 0.0 | 0.0 | 0.00 | 0.00 | 0.00 | 61 | 1050.7 |
| 20260902160002 | 90 | 205 | 0.9 | 4.3 | 0.00 | 0.00 | 0.00 | 62 | 1050.8 |
| 20260902155456 | 90 | 334 | 0.0 | 0.0 | 0.00 | 0.00 | 0.00 | 61 | 1050.7 |
| 20260902154950 | 89 | 317 | 0.0 | 0.0 | 0.00 | 0.00 | 0.00 | 63 | 1050.9 |
| 20260902154446 | 89 | 315 | 0.0 | 0.0 | 0.00 | 0.00 | 0.00 | 63 | 1050.8 |
| 20260902153946 | 90 | 258 | 0.0 | 0.0 | 0.00 | 0.00 | 0.00 | 63 | 1051.0 |
| 20260902153444 | 89 | 256 | 0.0 | 0.9 | 0.00 | 0.00 | 0.00 | 64 | 1050.9 |
| 20260902152939 | 89 | 297 | 0.0 | 0.9 | 0.00 | 0.00 | 0.00 | 64 | 1050.9 |
| 20260902152436 | 89 | 237 | 0.0 | 2.6 | 0.00 | 0.00 | 0.00 | 65 | 1051.0 |
| 20260902151931 | 89 | 328 | 0.0 | 0.0 | 0.00 | 0.00 | 0.00 | 63 | 1050.8 |
| 20260902151428 | 88 | 318 | 0.0 | 0.0 | 0.00 | 0.00 | 0.00 | 66 | 1050.9 |
| 20260902150926 | 88 | 322 | 0.0 | 0.9 | 0.00 | 0.00 | 0.00 | 67 | 1050.9 |
| 20260902150423 | 87 | 226 | 0.0 | 0.9 | 0.00 | 0.00 | 0.00 | 67 | 1050.9 |
| 20260902145922 | 87 | 228 | 0.0 | 0.9 | 0.00 | 0.00 | 0.00 | 67 | 1051.1 |
| 20260902145418 | 86 | 304 | 0.0 | 0.9 | 0.00 | 0.00 | 0.00 | 68 | 1050.7 |
| 20260902144913 | 86 | 307 | 0.0 | 0.0 | 0.00 | 0.00 | 0.00 | 68 | 1050.7 |
| 20260902144409 | 86 | 208 | 0.0 | 0.0 | 0.00 | 0.00 | 0.00 | 69 | 1051.0 |
| 20260902143909 | 86 | 346 | 0.0 | 1.7 | 0.00 | 0.00 | 0.00 | 70 | 1050.9 |
| 20260902143404 | 86 | 268 | 0.0 | 4.3 | 0.00 | 0.00 | 0.00 | 69 | 1050.9 |
| 20260902142859 | 85 | 331 | 0.0 | 0.0 | 0.00 | 0.00 | 0.00 | 70 | 1050.9 |
| 20260902142355 | 85 | 310 | 0.0 | 0.9 | 0.00 | 0.00 | 0.00 | 71 | 1050.9 |
| 20260902141850 | 85 | 298 | 0.0 | 0.0 | 0.00 | 0.00 | 0.00 | 72 | 1050.8 |
| 20260902141345 | 84 | 318 | 0.0 | 0.0 | 0.00 | 0.00 | 0.00 | 74 | 1050.8 |
| 20260902140844 | 83 | 319 | 0.0 | 0.0 | 0.00 | 0.00 | 0.00 | 75 | 1050.8 |
| 20260902140340 | 83 | 267 | 0.0 | 0.9 | 0.00 | 0.00 | 0.00 | 75 | 1050.7 |
| 20260902135840 | 83 | 316 | 0.0 | 0.0 | 0.00 | 0.00 | 0.00 | 75 | 1050.6 |
| 20260902135336 | 83 | 290 | 0.0 | 0.0 | 0.00 | 0.00 | 0.00 | 75 | 1050.8 |
| 20260902134834 | 82 | 293 | 0.0 | 0.0 | 0.00 | 0.00 | 0.00 | 77 | 1050.9 |
| 20260902134330 | 82 | 302 | 0.0 | 0.0 | 0.00 | 0.00 | 0.00 | 77 | 1050.7 |
| 20260902133826 | 81 | 308 | 0.0 | 0.0 | 0.00 | 0.00 | 0.00 | 78 | 1050.7 |
| 20260902133325 | 80 | 249 | 0.0 | 0.0 | 0.00 | 0.00 | 0.00 | 80 | 1050.8 |
| 20260902132820 | 80 | 241 | 0.0 | 0.0 | 0.00 | 0.00 | 0.00 | 80 | 1050.8 |
| 20260902132316 | 79 | 252 | 0.0 | 0.0 | 0.00 | 0.00 | 0.00 | 81 | 1050.7 |
| 20260902131811 | 79 | 300 | 0.0 | 0.0 | 0.00 | 0.00 | 0.00 | 82 | 1050.6 |
| 20260902131308 | 79 | 252 | 0.0 | 0.0 | 0.00 | 0.00 | 0.00 | 82 | 1050.8 |
| 20260902130807 | 78 | 211 | 0.0 | 0.9 | 0.00 | 0.00 | 0.00 | 83 | 1050.8 |
| 20260902130303 | 78 | 215 | 0.0 | 0.0 | 0.00 | 0.00 | 0.00 | 83 | 1050.6 |
| 20260902125758 | 78 | 317 | 0.0 | 0.0 | 0.00 | 0.00 | 0.00 | 83 | 1050.8 |
| 20260902125254 | 78 | 211 | 0.0 | 0.0 | 0.00 | 0.00 | 0.00 | 83 | 1050.5 |
| 20260902124750 | 78 | 249 | 0.0 | 0.0 | 0.00 | 0.00 | 0.00 | 83 | 1050.5 |
| 20260902124245 | 78 | 212 | 0.0 | 0.0 | 0.00 | 0.00 | 0.00 | 82 | 1050.5 |
| 20260902123740 | 78 | 223 | 0.0 | 0.0 | 0.00 | 0.00 | 0.00 | 82 | 1050.5 |
| 20260902123237 | 78 | 324 | 0.0 | 0.0 | 0.00 | 0.00 | 0.00 | 83 | 1050.6 |
| 20260902122735 | 77 | 238 | 0.0 | 0.0 | 0.00 | 0.00 | 0.00 | 83 | 1050.5 |
| 20260902122232 | 77 | 199 | 0.0 | 0.0 | 0.00 | 0.00 | 0.00 | 84 | 1050.0 |
| 20260902121731 | 77 | 278 | 0.0 | 0.0 | 0.00 | 0.00 | 0.00 | 84 | 1050.2 |
| 20260902121227 | 76 | 267 | 0.0 | 0.0 | 0.00 | 0.00 | 0.00 | 85 | 1050.2 |
| 20260902120722 | 76 | 310 | 0.0 | 0.9 | 0.00 | 0.00 | 0.00 | 86 | 1050.5 |
| 20260902120218 | 75 | 218 | 0.0 | 0.0 | 0.00 | 0.00 | 0.00 | 86 | 1050.5 |
| 20260902115718 | 75 | 28 | 0.0 | 0.0 | 0.00 | 0.00 | 0.00 | 87 | 1050.5 |
| 20260902115214 | 75 | 314 | 0.0 | 0.0 | 0.00 | 0.00 | 0.00 | 88 | 1050.2 |
| 20260902114710 | 74 | 287 | 0.0 | 0.0 | 0.00 | 0.00 | 0.00 | 88 | 1050.0 |
| 20260902114206 | 74 | 297 | 0.0 | 0.0 | 0.00 | 0.00 | 0.00 | 88 | 1050.2 |
| 20260902113700 | 74 | 323 | 0.0 | 0.0 | 0.00 | 0.00 | 0.00 | 88 | 1050.5 |
| 20260902113155 | 74 | 277 | 0.0 | 0.0 | 0.00 | 0.00 | 0.00 | 88 | 1050.3 |
| 20260902112655 | 74 | 314 | 0.0 | 0.0 | 0.00 | 0.00 | 0.00 | 89 | 1050.2 |
| 20260902112153 | 74 | 312 | 0.0 | 0.0 | 0.00 | 0.00 | 0.00 | 89 | 1050.3 |
| 20260902111648 | 74 | 236 | 0.0 | 0.0 | 0.00 | 0.00 | 0.00 | 88 | 1049.9 |
| 20260902111143 | 74 | 236 | 0.0 | 0.0 | 0.00 | 0.00 | 0.00 | 88 | 1050.1 |
| 20260902110639 | 74 | 235 | 0.0 | 0.0 | 0.00 | 0.00 | 0.00 | 88 | 1050.2 |
| 20260902110135 | 74 | 251 | 0.0 | 0.0 | 0.00 | 0.00 | 0.00 | 88 | 1050.0 |
| 20260902105634 | 74 | 251 | 0.0 | 0.0 | 0.00 | 0.00 | 0.00 | 88 | 1050.1 |
| 20260902105130 | 74 | 293 | 0.0 | 0.0 | 0.00 | 0.00 | 0.00 | 88 | 1049.9 |
| 20260902104625 | 74 | 227 | 0.0 | 0.0 | 0.00 | 0.00 | 0.00 | 88 | 1049.9 |
| 20260902104120 | 74 | 303 | 0.0 | 0.0 | 0.00 | 0.00 | 0.00 | 88 | 1049.9 |
| 20260902103619 | 74 | 242 | 0.0 | 0.0 | 0.00 | 0.00 | 0.00 | 88 | 1050.1 |
| 20260902103115 | 74 | 247 | 0.0 | 0.0 | 0.00 | 0.00 | 0.00 | 88 | 1049.9 |
| 20260902102611 | 74 | 299 | 0.0 | 0.0 | 0.00 | 0.00 | 0.00 | 89 | 1049.8 |
| 20260902102108 | 74 | 316 | 0.0 | 0.0 | 0.00 | 0.00 | 0.00 | 89 | 1049.9 |
| 20260902101603 | 74 | 309 | 0.0 | 0.0 | 0.00 | 0.00 | 0.00 | 89 | 1050.0 |
| 20260902101103 | 74 | 326 | 0.0 | 0.0 | 0.00 | 0.00 | 0.00 | 89 | 1050.0 |
| 20260902100557 | 74 | 329 | 0.0 | 0.0 | 0.00 | 0.00 | 0.00 | 89 | 1050.0 |
| 20260902100052 | 74 | 324 | 0.0 | 0.0 | 0.00 | 0.00 | 0.00 | 89 | 1049.9 |
| 20260902095552 | 74 | 324 | 0.0 | 0.0 | 0.00 | 0.00 | 0.00 | 89 | 1050.0 |
| 20260902095051 | 74 | 292 | 0.0 | 0.0 | 0.00 | 0.00 | 0.00 | 89 | 1050.0 |
| 20260902094546 | 74 | 314 | 0.0 | 0.0 | 0.00 | 0.00 | 0.00 | 89 | 1049.9 |
| 20260902094042 | 74 | 321 | 0.0 | 0.0 | 0.00 | 0.00 | 0.00 | 88 | 1049.8 |
| 20260902093537 | 74 | 310 | 0.0 | 0.0 | 0.00 | 0.00 | 0.00 | 88 | 1050.1 |
| 20260902093036 | 74 | 309 | 0.0 | 0.0 | 0.00 | 0.00 | 0.00 | 88 | 1049.9 |
| 20260902092532 | 74 | 275 | 0.0 | 0.0 | 0.00 | 0.00 | 0.00 | 88 | 1049.9 |
| 20260902092026 | 75 | 311 | 0.0 | 0.0 | 0.00 | 0.00 | 0.00 | 88 | 1049.8 |
| 20260902091522 | 75 | 318 | 0.0 | 0.0 | 0.00 | 0.00 | 0.00 | 88 | 1049.7 |
| 20260902091018 | 75 | 289 | 0.0 | 0.0 | 0.00 | 0.00 | 0.00 | 88 | 1049.9 |
| 20260902090514 | 75 | 317 | 0.0 | 0.0 | 0.00 | 0.00 | 0.00 | 88 | 1050.1 |
| 20260902090013 | 75 | 323 | 0.0 | 0.0 | 0.00 | 0.00 | 0.00 | 88 | 1050.1 |
| 20260902085513 | 75 | 322 | 0.0 | 0.0 | 0.00 | 0.00 | 0.00 | 88 | 1050.1 |
| 20260902085008 | 75 | 329 | 0.0 | 0.0 | 0.00 | 0.00 | 0.00 | 87 | 1050.2 |
| 20260902084504 | 75 | 327 | 0.0 | 0.0 | 0.00 | 0.00 | 0.00 | 87 | 1050.0 |
| 20260902083959 | 75 | 327 | 0.0 | 0.0 | 0.00 | 0.00 | 0.00 | 87 | 1049.8 |
| 20260902083455 | 76 | 331 | 0.0 | 0.0 | 0.00 | 0.00 | 0.00 | 87 | 1049.6 |
| 20260902082949 | 76 | 325 | 0.0 | 0.0 | 0.00 | 0.00 | 0.00 | 87 | 1049.7 |
| 20260902082445 | 76 | 297 | 0.0 | 0.0 | 0.00 | 0.00 | 0.00 | 87 | 1049.6 |
| 20260902081941 | 76 | 295 | 0.0 | 0.0 | 0.00 | 0.00 | 0.00 | 87 | 1049.7 |
| 20260902081437 | 75 | 325 | 0.0 | 0.0 | 0.00 | 0.00 | 0.00 | 87 | 1049.4 |
| 20260902080932 | 75 | 308 | 0.0 | 0.0 | 0.00 | 0.00 | 0.00 | 87 | 1049.5 |
| 20260902080428 | 75 | 299 | 0.0 | 0.0 | 0.00 | 0.00 | 0.00 | 87 | 1049.4 |
| 20260902075928 | 75 | 316 | 0.0 | 0.0 | 0.00 | 0.00 | 0.00 | 88 | 1049.4 |
| 20260902075424 | 75 | 320 | 0.0 | 0.0 | 0.00 | 0.00 | 0.00 | 87 | 1049.7 |
| 20260902074919 | 75 | 327 | 0.0 | 0.0 | 0.00 | 0.00 | 0.00 | 87 | 1049.6 |
| 20260902074415 | 76 | 320 | 0.0 | 0.0 | 0.00 | 0.00 | 0.00 | 87 | 1049.7 |
| 20260902073909 | 76 | 325 | 0.0 | 0.0 | 0.00 | 0.00 | 0.00 | 86 | 1049.6 |
| 20260902073406 | 76 | 324 | 0.0 | 0.0 | 0.00 | 0.00 | 0.00 | 86 | 1049.6 |
| 20260902072901 | 76 | 316 | 0.0 | 0.0 | 0.00 | 0.00 | 0.00 | 87 | 1049.7 |
| 20260902072357 | 76 | 323 | 0.0 | 0.0 | 0.00 | 0.00 | 0.00 | 86 | 1049.4 |
| 20260902071853 | 76 | 331 | 0.0 | 0.0 | 0.00 | 0.00 | 0.00 | 86 | 1049.6 |
| 20260902071353 | 76 | 331 | 0.0 | 0.0 | 0.00 | 0.00 | 0.00 | 85 | 1049.6 |
| 20260902070849 | 77 | 331 | 0.0 | 0.0 | 0.00 | 0.00 | 0.00 | 85 | 1049.9 |
| 20260902070344 | 77 | 330 | 0.0 | 0.0 | 0.00 | 0.00 | 0.00 | 84 | 1049.5 |
| 20260902065842 | 78 | 324 | 0.0 | 0.0 | 0.00 | 0.00 | 0.00 | 84 | 1049.4 |
| 20260902065338 | 78 | 315 | 0.0 | 0.0 | 0.00 | 0.00 | 0.00 | 83 | 1049.5 |
| 20260902064833 | 78 | 332 | 0.0 | 0.0 | 0.00 | 0.00 | 0.00 | 83 | 1049.3 |
| 20260902064330 | 78 | 321 | 0.0 | 0.0 | 0.00 | 0.00 | 0.00 | 82 | 1049.2 |
| 20260902063825 | 78 | 247 | 0.0 | 0.0 | 0.00 | 0.00 | 0.00 | 82 | 1049.2 |
| 20260902063325 | 78 | 307 | 0.0 | 0.0 | 0.00 | 0.00 | 0.00 | 82 | 1049.3 |
| 20260902062819 | 78 | 293 | 0.0 | 0.0 | 0.00 | 0.00 | 0.00 | 82 | 1049.2 |
| 20260902062314 | 78 | 310 | 0.0 | 0.0 | 0.00 | 0.00 | 0.00 | 82 | 1049.4 |
| 20260902061813 | 78 | 287 | 0.0 | 0.0 | 0.00 | 0.00 | 0.00 | 82 | 1049.3 |
| 20260902061309 | 78 | 312 | 0.0 | 0.0 | 0.00 | 0.00 | 0.00 | 82 | 1049.3 |
| 20260902060805 | 78 | 326 | 0.0 | 0.0 | 0.00 | 0.00 | 0.00 | 82 | 1049.4 |
| 20260902060301 | 78 | 319 | 0.0 | 0.0 | 0.00 | 0.00 | 0.00 | 82 | 1049.5 |
| 20260902055756 | 78 | 319 | 0.0 | 0.0 | 0.00 | 0.00 | 0.00 | 82 | 1049.3 |
| 20260902055253 | 79 | 305 | 0.0 | 0.0 | 0.00 | 0.00 | 0.00 | 82 | 1049.2 |
| 20260902054753 | 79 | 318 | 0.0 | 0.0 | 0.00 | 0.00 | 0.00 | 82 | 1049.2 |
| 20260902054248 | 79 | 323 | 0.0 | 0.0 | 0.00 | 0.00 | 0.00 | 81 | 1049.2 |
| 20260902053743 | 79 | 307 | 0.0 | 0.0 | 0.00 | 0.00 | 0.00 | 82 | 1049.2 |
| 20260902053243 | 79 | 328 | 0.0 | 0.0 | 0.00 | 0.00 | 0.00 | 82 | 1049.1 |
| 20260902052737 | 79 | 323 | 0.0 | 0.0 | 0.00 | 0.00 | 0.00 | 81 | 1049.2 |
| 20260902052232 | 79 | 305 | 0.0 | 0.0 | 0.00 | 0.00 | 0.00 | 81 | 1049.1 |